Weather History for KAGS - April, 2013

Change the Weather History Date:

Monday, April 1, 2013

  Actual Average Record
Temperature  
Mean Temperature 65 °F 60 °F  
Max Temperature 77 °F 74 °F 88 °F (1896)
Min Temperature 52 °F 45 °F 28 °F (1987)
Degree Days  
Heating Degree Days 0 6  
Month to date heating degree days 0 6  
Since 1 July heating degree days 2239 2334  
Cooling Degree Days 0 1  
Month to date cooling degree days 0 1  
Year to date cooling degree days 21 19  
Growing Degree Days 18 (Base 50)    
Moisture  
Dew Point 55 °F    
Average Humidity 61    
Maximum Humidity 97    
Minimum Humidity 25    
Precipitation  
Precipitation 0.30 in 0.12 in 2.14 in (1936)
Month to date precipitation 0.30 0.12  
Year to date precipitation 13.41 12.13  
Sea Level Pressure  
Sea Level Pressure 29.91 in    
Wind  
Wind Speed 7 mph (West)    
Max Wind Speed 18 mph    
Max Gust Speed 23 mph    
Visibility 8 miles    
Events Rain , Thunderstorm    
T = Trace of Precipitation, MM = Missing Value Source: NWS Daily Summary

Daily Weather History Graph

Daily Weather History Graph

Search for Another Location

Airport or City:

Trip Planner

Search our weather history database for the weather conditions in past years. The results will help you decide how hot, cold, wet, or windy it might be!

Date:

Astronomy

Apr. 01, 2013 Rise Set
Actual Time 7:15 AM EDT 7:48 PM EDT
Civil Twilight 6:50 AM EDT 8:13 PM EDT
Nautical Twilight 6:20 AM EDT 8:42 PM EDT
Astronomical Twilight 5:51 AM EDT 9:12 PM EDT
Moon 12:42 AM EDT (4/1) 11:13 AM EDT (4/1)
Length of Visible Light 13h 23m
Length of Day
12h 33m
Waning Gibbous, 67% of the Moon is Illuminated
Apr 1
Waning Gibbous
Apr 3
Last Quarter
Apr 10
New
Apr 18
First Quarter
Apr 25
Full

Hourly Weather History & Observations

Time (EDT) Temp. Dew Point Humidity Pressure Visibility Wind Dir Wind Speed Gust Speed Precip Events Conditions
12:19 AM 62.6 °F 60.8 °F 94% 29.91 in 4.0 mi South 5.8 mph - 0.07 in Rain , Thunderstorm Rain
12:34 AM 62.6 °F 60.8 °F 94% 29.89 in 1.8 mi Variable 4.6 mph - 0.14 in Rain , Thunderstorm Heavy Thunderstorms and Rain
12:44 AM 62.6 °F 60.8 °F 94% 29.90 in 3.0 mi SW 4.6 mph - 0.24 in Rain , Thunderstorm Thunderstorms and Rain
12:53 AM 62.6 °F 60.8 °F 94% 29.91 in 5.0 mi WSW 3.5 mph - N/A Rain Light Rain
1:53 AM 60.8 °F 60.8 °F 100% 29.90 in 9.0 mi Calm Calm - N/A   Mostly Cloudy
2:11 AM 62.6 °F 60.8 °F 94% 29.89 in 7.0 mi North 4.6 mph - N/A   Overcast
2:46 AM 62.6 °F 60.8 °F 94% 29.88 in 8.0 mi North 5.8 mph - 0.00 in   Overcast
2:53 AM 62.1 °F 60.1 °F 93% 29.87 in 10.0 mi North 4.6 mph - 0.00 in   Overcast
3:53 AM 61.0 °F 59.0 °F 93% 29.88 in 8.0 mi Calm Calm - 0.03 in Rain Light Rain
4:35 AM 60.8 °F 59.0 °F 94% 29.89 in 8.0 mi SSW 3.5 mph - 0.02 in Rain Light Rain
4:44 AM 60.8 °F 59.0 °F 94% 29.90 in 7.0 mi West 4.6 mph - 0.03 in Rain Light Rain
4:53 AM 61.0 °F 59.0 °F 93% 29.91 in 5.0 mi WSW 8.1 mph - 0.04 in Rain Light Rain
5:07 AM 60.8 °F 59.0 °F 94% 29.90 in 2.5 mi WSW 4.6 mph - 0.08 in Rain Heavy Rain
5:16 AM 60.8 °F 59.0 °F 94% 29.88 in 5.0 mi Calm Calm - 0.10 in Rain Rain
5:53 AM 59.0 °F 57.9 °F 96% 29.88 in 6.0 mi South 3.5 mph - 0.12 in Rain Light Rain
6:53 AM 60.1 °F 59.0 °F 96% 29.89 in 5.0 mi SSW 8.1 mph - 0.05 in Rain Light Rain
7:00 AM 60.8 °F 59.0 °F 94% 29.90 in 8.0 mi South 6.9 mph - 0.01 in Rain Light Rain
7:53 AM 59.0 °F 57.9 °F 96% 29.92 in 5.0 mi SSW 4.6 mph - 0.05 in Rain Light Rain
8:03 AM 59.0 °F 57.2 °F 94% 29.93 in 9.0 mi SW 4.6 mph - 0.00 in Rain Light Rain
8:53 AM 60.1 °F 57.9 °F 93% 29.94 in 10.0 mi WSW 4.6 mph - 0.00 in   Overcast
9:09 AM 60.8 °F 57.2 °F 88% 29.94 in 10.0 mi WSW 5.8 mph - N/A   Overcast
9:15 AM 60.8 °F 57.2 °F 88% 29.93 in 10.0 mi SW 6.9 mph - N/A   Overcast
9:53 AM 62.1 °F 59.0 °F 90% 29.94 in 10.0 mi WSW 6.9 mph - N/A   Overcast
10:53 AM 64.0 °F 59.0 °F 84% 29.94 in 10.0 mi WNW 9.2 mph - N/A   Overcast
11:18 AM 64.4 °F 57.2 °F 77% 29.95 in 10.0 mi WNW 8.1 mph - N/A   Overcast
11:53 AM 64.9 °F 57.9 °F 78% 29.95 in 10.0 mi NW 9.2 mph - N/A   Overcast
12:51 PM 66.2 °F 57.2 °F 73% 29.94 in 10.0 mi West 4.6 mph - N/A   Mostly Cloudy
12:53 PM 68.0 °F 57.0 °F 68% 29.94 in 10.0 mi Variable 3.5 mph - N/A   Scattered Clouds
1:53 PM 70.0 °F 55.9 °F 61% 29.92 in 10.0 mi WNW 8.1 mph - N/A   Scattered Clouds
2:53 PM 73.0 °F 53.1 °F 49% 29.90 in 10.0 mi WNW 8.1 mph 16.1 mph N/A   Partly Cloudy
3:53 PM 73.9 °F 51.1 °F 45% 29.89 in 10.0 mi WNW 9.2 mph - N/A   Overcast
4:53 PM 77.0 °F 48.0 °F 36% 29.88 in 10.0 mi NW 13.8 mph 19.6 mph N/A   Scattered Clouds
5:53 PM 75.9 °F 39.0 °F 26% 29.88 in 10.0 mi NW 11.5 mph 20.7 mph N/A   Scattered Clouds
6:53 PM 75.0 °F 37.0 °F 25% 29.90 in 10.0 mi NW 9.2 mph - N/A   Clear
7:53 PM 68.0 °F 37.0 °F 32% 29.91 in 10.0 mi WNW 6.9 mph - N/A   Clear
8:53 PM 61.0 °F 39.9 °F 46% 29.93 in 10.0 mi West 6.9 mph - N/A   Clear
9:53 PM 63.0 °F 37.9 °F 40% 29.96 in 10.0 mi WNW 6.9 mph - N/A   Clear
10:53 PM 61.0 °F 41.0 °F 48% 29.97 in 10.0 mi WNW 6.9 mph - N/A   Clear
11:53 PM 53.1 °F 43.0 °F 69% 29.98 in 10.0 mi WNW 6.9 mph - N/A   Clear